Location: Rounton
(54.4000°N, 1.3500°W)
Time: 22:04:12
(UTC+00:00)

deb Explorer IX - Pass Details

Date: 16 December 2021
Orbit: 544 x 1082 km, 38.8° (Epoch: 27 January)

Event Time Altitude Azimuth Distance (km) Brightness Sun altitude
Exits shadow 05:11:59 - 201° (SSW) 3,308 ? -25.8°
Reaches altitude 10° 05:14:52 10° 182° (S) 2,717 ? -25.4°
Maximum altitude 05:17:20 12° 160° (SSE) 2,486 ? -25.0°
Drops below altitude 10° 05:19:42 10° 138° (SE) 2,584 ? -24.7°
Sets 05:23:50 0° 109° (ESE) 3,388 ? -24.1°
